Ottumwa, IA

7:20 AM CDT on October 15, 2019 (GMT -0500)
Ottumwa Industrial

Weather History for KOTM - August, 2019

Change the Weather History Date:

Wednesday, August 14, 2019

  Actual Average Record
Temperature  
Mean Temperature 70 °F 74 °F  
Max Temperature 77 °F 84 °F 109 °F (1936)
Min Temperature 62 °F 63 °F 47 °F (2013)
Degree Days  
Heating Degree Days 0 0  
Month to date heating degree days 0 0  
Since 1 June heating degree days 4 23  
Since 1 July heating degree days 0 2  
Cooling Degree Days 5 9  
Month to date cooling degree days 129 128  
Year to date cooling degree days 776 707  
Since 1 June cooling degree days 713 643  
Growing Degree Days 20 (Base 50)    
Moisture  
Dew Point 62 °F    
Average Humidity 75    
Maximum Humidity 93    
Minimum Humidity 56    
Precipitation  
Precipitation T in 0.16 in 2.75 in (1898)
Month to date precipitation 0.77 2.05  
Year to date precipitation 27.29 24.14  
Sea Level Pressure  
Sea Level Pressure 30.02 in    
Wind  
Wind Speed 9 mph (NW)    
Max Wind Speed 17 mph    
Max Gust Speed 23 mph    
Visibility 10 miles    
Events      
T = Trace of Precipitation, MM = Missing Value Source: NWS Daily Summary

Daily Weather History Graph

Daily Weather History Graph

Search for Another Location

Airport or City:

Astronomy

Aug. 14, 2019 Rise Set
Actual Time 6:18 AM CDT 8:10 PM CDT
Civil Twilight 5:48 AM CDT 8:39 PM CDT
Nautical Twilight 5:12 AM CDT 9:15 PM CDT
Astronomical Twilight 4:33 AM CDT 9:54 PM CDT
Moon 8:04 PM CDT (8/14) 5:15 AM CDT (8/14)
Length of Visible Light 14h 51m
Length of Day
13h 51m
Waxing Gibbous, 99% of the Moon is Illuminated
Aug 14
Waxing Gibbous
Aug 15
Full
Aug 23
Last Quarter
Aug 30
New
Sep 5
First Quarter

Hourly Weather History & Observations

Time (CDT) Temp. Dew Point Humidity Pressure Visibility Wind Dir Wind Speed Gust Speed Precip Events Conditions
12:53 AM 69.1 °F 64.0 °F 84% 29.98 in 10.0 mi WNW 5.8 mph - N/A   Clear
1:53 AM 66.9 °F 63.0 °F 87% 29.98 in 10.0 mi WNW 6.9 mph - N/A   Clear
2:53 AM 64.9 °F 61.0 °F 87% 29.98 in 10.0 mi WNW 6.9 mph - N/A   Clear
3:53 AM 66.0 °F 62.1 °F 87% 29.99 in 10.0 mi WNW 6.9 mph - N/A   Clear
4:53 AM 64.0 °F 60.1 °F 87% 30.00 in 10.0 mi WNW 6.9 mph - N/A   Clear
5:53 AM 62.1 °F 60.1 °F 93% 30.00 in 10.0 mi West 5.8 mph - N/A   Clear
6:53 AM 63.0 °F 60.1 °F 90% 30.01 in 10.0 mi West 5.8 mph - N/A   Clear
7:53 AM 64.9 °F 61.0 °F 87% 30.01 in 10.0 mi WNW 9.2 mph - N/A   Clear
8:53 AM 68.0 °F 62.1 °F 81% 30.02 in 10.0 mi WNW 12.7 mph - N/A   Clear
9:53 AM 70.0 °F 62.1 °F 76% 30.03 in 10.0 mi WNW 11.5 mph - N/A   Mostly Cloudy
10:07 AM 71.1 °F 62.1 °F 73% 30.04 in 10.0 mi West 10.4 mph - N/A   Scattered Clouds
10:53 AM 72.0 °F 62.1 °F 71% 30.03 in 10.0 mi NW 13.8 mph - N/A   Partly Cloudy
11:53 AM 73.9 °F 61.0 °F 64% 30.04 in 10.0 mi WNW 13.8 mph - N/A   Mostly Cloudy
12:53 PM 75.0 °F 60.1 °F 60% 30.03 in 10.0 mi NW 12.7 mph - N/A   Mostly Cloudy
1:53 PM 75.9 °F 59.0 °F 56% 30.02 in 10.0 mi WNW 11.5 mph 23.0 mph N/A   Mostly Cloudy
2:53 PM 77.0 °F 61.0 °F 58% 30.01 in 10.0 mi WNW 12.7 mph - N/A   Overcast
3:53 PM 75.0 °F 62.1 °F 64% 30.01 in 10.0 mi NW 13.8 mph - N/A   Overcast
4:53 PM 75.0 °F 62.1 °F 64% 30.00 in 10.0 mi NNW 15.0 mph - N/A   Overcast
5:53 PM 75.0 °F 62.1 °F 64% 30.01 in 10.0 mi NNW 17.3 mph - N/A   Overcast
6:53 PM 73.9 °F 63.0 °F 68% 30.00 in 10.0 mi NW 9.2 mph - N/A   Mostly Cloudy
7:53 PM 70.0 °F 63.0 °F 78% 30.02 in 10.0 mi NNW 6.9 mph - 0.00 in   Mostly Cloudy
8:53 PM 68.0 °F 63.0 °F 84% 30.03 in 10.0 mi NNW 4.6 mph - N/A   Mostly Cloudy
9:06 PM 66.9 °F 63.0 °F 87% 30.04 in 10.0 mi NNW 4.6 mph - N/A   Scattered Clouds
9:53 PM 66.0 °F 63.0 °F 90% 30.05 in 10.0 mi North 4.6 mph - N/A   Clear
10:53 PM 64.9 °F 62.1 °F 90% 30.05 in 10.0 mi North 3.5 mph - N/A   Clear
11:53 PM 63.0 °F 61.0 °F 93% 30.05 in 10.0 mi NW 5.8 mph - N/A   Clear